Location: Orinda
(37.8771°N, 122.1797°W)
Time: 14:28:02
(UTC+00:00)

Cosmos 2154 Rocket - Visible Passes

Search period start: 25 January 2020 00:00
Search period end: 04 February 2020 00:00
Orbit: 965 x 997 km, 82.9° (Epoch: 24 January)

Date Brightness Start Highest point End Pass type
(mag) Time Alt. Az. Time Alt. Az. Time Alt. Az.
25 Jan 6.4 02:50:26 10° WSW 02:55:01 21° WNW 02:59:37 10° NNW visible
25 Jan 5.0 12:07:33 41° ENE 12:07:40 41° ENE 12:13:28 10° SSE visible
25 Jan 4.8 13:52:29 26° W 13:52:52 26° W 13:57:52 10° SW visible
26 Jan 7.0 03:21:54 10° WNW 03:22:43 10° WNW 03:23:31 10° WNW visible
26 Jan 4.4 12:36:22 54° SSE 12:36:22 54° SSE 12:41:06 10° S visible
26 Jan 5.7 14:21:17 12° W 14:21:17 12° W 14:22:10 10° WSW visible
27 Jan 5.4 01:57:34 10° SSW 02:03:27 42° WNW 02:09:21 10° N visible
27 Jan 6.6 11:20:07 11° ESE 11:20:07 11° ESE 11:20:34 10° ESE visible
27 Jan 5.1 13:05:01 29° SSW 13:05:01 29° SSW 13:07:57 10° SSW visible
28 Jan 6.4 02:26:08 10° WSW 02:30:53 22° WNW 02:35:39 10° NNW visible
28 Jan 6.3 11:48:38 13° SE 11:48:38 13° SE 11:49:17 10° SE visible
28 Jan 5.9 13:33:32 12° SW 13:33:32 12° SW 13:33:57 10° SW visible
29 Jan 6.9 02:56:50 10° W 02:58:32 11° WNW 03:00:16 10° NW visible
31 Jan 6.3 02:01:51 10° SW 02:06:45 24° WNW 02:11:39 10° NNW visible
01 Feb 6.8 02:32:07 10° W 02:34:24 12° WNW 02:36:40 10° NW visible
